Weather History for Akron, OH

Change the Weather History Date:

Thursday, March 21, 2013

  Actual Average (KCAK) Record (KCAK)
Temperature  
Mean Temperature 21 °F 39 °F  
Max Temperature 28 °F 49 °F 80 °F (2012)
Min Temperature 14 °F 30 °F 8 °F (1986)
Degree Days  
Heating Degree Days 44 26  
Month to date heating degree days 615  
Since 1 July heating degree days 5159  
Cooling Degree Days 0 0  
Month to date cooling degree days 0  
Year to date cooling degree days 0  
Moisture  
Dew Point 16 °F    
Average Humidity 74    
Maximum Humidity 86    
Minimum Humidity 60    
Precipitation  
Precipitation 0.00 in 0.10 in 1.15 in (1955)
Month to date precipitation 1.92  
Year to date precipitation 6.84  
Snow  
Snow 0.00 in 0.30 in - ()
Month to date snowfall 6.3  
Since 1 July snowfall 42.8  
Snow Depth -    
Sea Level Pressure  
Sea Level Pressure 29.89 in    
Wind  
Wind Speed 11 mph (West)    
Max Wind Speed 16 mph    
Max Gust Speed 22 mph    
Visibility 7 miles    
Events Snow    
T = Trace of Precipitation, MM = Missing Value Source: NWS Daily Summary

Daily Weather History Graph

Daily Weather History Graph

Search for Another Location

Airport:

Trip Planner

Search our weather history database for the weather conditions in past years. The results will help you decide how hot, cold, wet, or windy it might be!

Date:

Astronomy

Mar. 21, 2013 Rise Set
Actual Time 7:27 AM EDT 7:39 PM EDT
Civil Twilight 6:59 AM EDT 8:06 PM EDT
Nautical Twilight 6:27 AM EDT 8:39 PM EDT
Astronomical Twilight 5:54 AM EDT 9:11 PM EDT
Moon 2:05 PM EDT (3/21) 3:50 AM EDT (3/21)
Length of Visible Light 13h 07m
Length of Day
12h 12m
Waxing Gibbous, 68% of the Moon is Illuminated
Mar 21
Waxing Gibbous
Mar 27
Full
Apr 3
Last Quarter
Apr 10
New
Apr 18
First Quarter

Hourly Weather History & Observations

Time (EDT) Temp. Windchill Dew Point Humidity Pressure Visibility Wind Dir Wind Speed Gust Speed Precip Events Conditions
12:54 AM 19.9 °F 7.9 °F 8.1 °F 60% 29.93 in 10.0 mi WNW 11.5 mph - N/A   Mostly Cloudy
1:54 AM 19.4 °F 10.4 °F 8.6 °F 63% 29.88 in 10.0 mi WNW 6.9 mph - N/A   Partly Cloudy
2:54 AM 17.1 °F 5.8 °F 8.1 °F 68% 29.91 in 10.0 mi West 9.2 mph - N/A   Clear
3:54 AM 16.0 °F 5.3 °F 8.1 °F 71% 29.91 in 10.0 mi WSW 8.1 mph - N/A   Partly Cloudy
4:54 AM 16.0 °F 5.3 °F 8.1 °F 71% 29.89 in 10.0 mi West 8.1 mph - N/A   Clear
5:54 AM 14.0 °F 2.0 °F 8.1 °F 77% 29.89 in 10.0 mi West 9.2 mph - N/A   Clear
6:54 AM 14.0 °F 2.9 °F 8.1 °F 77% 29.89 in 10.0 mi West 8.1 mph - N/A   Clear
7:54 AM 14.0 °F 1.2 °F 9.0 °F 80% 29.89 in 10.0 mi West 10.4 mph - N/A   Clear
8:54 AM 17.1 °F 5.8 °F 10.0 °F 74% 29.89 in 10.0 mi West 9.2 mph - N/A   Partly Cloudy
9:54 AM 19.9 °F 6.7 °F 10.9 °F 68% 29.90 in 10.0 mi West 13.8 mph - N/A   Mostly Cloudy
10:54 AM 21.0 °F 9.3 °F 10.9 °F 65% 29.90 in 10.0 mi West 11.5 mph - N/A   Overcast
11:54 AM 24.1 °F 13.1 °F 14.0 °F 65% 29.91 in 10.0 mi WSW 11.5 mph - N/A   Overcast
12:47 PM 24.8 °F 11.9 °F 14.0 °F 64% 29.86 in 10.0 mi West 16.1 mph 19.6 mph 0.00 in   Overcast
12:54 PM 24.1 °F 12.0 °F 12.9 °F 62% 29.90 in 10.0 mi West 13.8 mph 21.9 mph 0.00 in   Overcast
1:11 PM 24.8 °F 12.4 °F 14.0 °F 64% 29.85 in 10.0 mi WSW 15.0 mph - N/A   Overcast
1:54 PM 24.1 °F 11.5 °F 12.9 °F 62% 29.90 in 10.0 mi West 15.0 mph - N/A   Overcast
2:54 PM 27.0 °F 14.7 °F 16.0 °F 63% 29.89 in 7.0 mi West 16.1 mph - 0.00 in Snow Light Snow
3:54 PM 27.0 °F 17.3 °F 18.0 °F 69% 29.89 in 5.0 mi West 10.4 mph 19.6 mph 0.00 in Snow Light Snow
4:09 PM 26.6 °F 15.7 °F 19.4 °F 74% 29.84 in 1.8 mi West 12.7 mph 21.9 mph 0.00 in Snow Light Snow
4:18 PM 26.6 °F 15.2 °F 17.6 °F 69% 29.85 in 3.0 mi WNW 13.8 mph - 0.00 in Snow Light Snow
4:54 PM 27.0 °F 15.6 °F 19.0 °F 72% 29.89 in 10.0 mi West 13.8 mph - 0.00 in   Overcast
5:54 PM 28.0 °F 19.3 °F 21.0 °F 75% 29.90 in 2.5 mi West 9.2 mph - 0.00 in Snow Light Snow
6:01 PM 28.4 °F 19.7 °F 21.2 °F 74% 29.85 in 4.0 mi WNW 9.2 mph - 0.00 in Snow Light Snow
6:36 PM 28.4 °F 18.0 °F 21.2 °F 74% 29.86 in 4.0 mi West 12.7 mph - 0.00 in Snow Light Snow
6:41 PM 26.6 °F 14.3 °F 21.2 °F 80% 29.86 in 1.8 mi West 16.1 mph - 0.00 in Snow Light Snow
6:54 PM 27.0 °F 17.3 °F 21.9 °F 81% 29.91 in 1.8 mi WNW 10.4 mph - 0.00 in Snow Light Snow
6:57 PM 26.6 °F 16.8 °F 21.2 °F 80% 29.86 in 2.0 mi West 10.4 mph - 0.00 in Snow Light Snow
7:13 PM 26.6 °F 16.2 °F 21.2 °F 80% 29.86 in 1.8 mi West 11.5 mph - 0.00 in Snow Light Snow
7:22 PM 26.6 °F 16.2 °F 21.2 °F 80% 29.86 in 3.0 mi West 11.5 mph - 0.00 in Snow Light Snow
7:44 PM 26.6 °F 15.7 °F 21.2 °F 80% 29.87 in 2.5 mi West 12.7 mph - 0.00 in Snow Light Snow
7:51 PM 26.6 °F 16.2 °F 21.2 °F 80% 29.86 in 5.0 mi West 11.5 mph - 0.00 in Snow Light Snow
7:54 PM 26.1 °F 14.5 °F 21.0 °F 81% 29.91 in 7.0 mi West 13.8 mph - 0.00 in Snow Light Snow
8:01 PM 26.6 °F 16.2 °F 21.2 °F 80% 29.87 in 9.0 mi West 11.5 mph - 0.00 in   Overcast
8:54 PM 25.0 °F 17.1 °F 21.0 °F 85% 29.91 in 10.0 mi West 6.9 mph - 0.00 in   Overcast
9:54 PM 27.0 °F 18.7 °F 21.0 °F 78% 29.92 in 7.0 mi West 8.1 mph - 0.00 in Snow Light Snow
10:54 PM 27.0 °F 17.3 °F 21.9 °F 81% 29.92 in 5.0 mi West 10.4 mph - 0.00 in Snow Light Snow
11:15 PM 26.6 °F 17.5 °F 21.2 °F 80% 29.88 in 2.5 mi West 9.2 mph - 0.00 in Snow Light Snow
11:26 PM 26.6 °F 16.8 °F 23.0 °F 86% 29.88 in 3.0 mi West 10.4 mph - 0.00 in Snow Light Snow
11:54 PM 26.1 °F 14.5 °F 21.9 °F 84% 29.93 in 4.0 mi West 13.8 mph 19.6 mph 0.00 in Snow Light Snow